Regional Weather Roundup
Issued by NWS

Home | Current Version | Previous Version | Graphics & Text | Print | Product List | Glossary On
Versions: 1 2 3 4 5 6 7 8 9 10 11 12 13 14 15 16 17 18 19 20 21 22 23 24 25 26 27 28 29 30 31 32 33 34 35 36 37 38 39 40 41 42 43 44 45 46 47 48 49 50
096
ASUS45 KTFX 262310
RWRMT
MONTANA REGIONAL WEATHER ROUNDUP
NATIONAL WEATHER SERVICE GREAT FALLS MT
500 PM MDT FRI MAY 26 2017

NOTE: "FAIR" INDICATES FEW OR NO CLOUDS BELOW 12000 FEET WITH NO
SIGNIFICANT WEATHER AND/OR OBSTRUCTIONS TO VISIBILITY.

MTZ001>007-043-270000-
WEST OF THE DIVIDE

CITY           SKY/WX    TMP DP  RH WIND       PRES   REMARKS
KALISPELL      PTSUNNY   71  35  26 W8        29.88F
MISSOULA       LGT RAIN  59  41  51 NW13G29   29.94R
BUTTE          PTSUNNY   61  27  27 N14       29.95R
MULLAN PASS    LGT RAIN  49  33  54 N5        30.02R
ANACONDA         N/A     63  28  27 NW6       29.93S
DEER LODGE       N/A     59  34  38 N16G25    29.97R
EUREKA           N/A     68  36  30 CALM      29.90S
HAMILTON         N/A     64  34  32 N16       29.91F
PLAINS           N/A     73  41  31 CALM      29.91S
$$

MTZ008-052>055-270000-
SOUTHWEST MONTANA

CITY           SKY/WX    TMP DP  RH WIND       PRES   REMARKS
BOZEMAN        CLOUDY    59  35  40 SE7       29.92R
DILLON         PTSUNNY   59  28  30 N16G23    29.92R
ENNIS          PTSUNNY   57  28  33 N15G21    29.98R
THREE FORKS      N/A     66  25  21 N5        29.92R
TWIN BRIDGES     N/A     64  26  23 NW14      29.92R
$$

MTZ009-010-012-014-046-048-049-054-270000-
EAST SLOPES AND CENTRAL MONTANA

CITY           SKY/WX    TMP DP  RH WIND       PRES   REMARKS
CUT BANK       PTSUNNY   64  28  25 NW7       29.90S
GREAT FALLS    PTSUNNY   61  34  36 NE7       29.90F
MALMSTROM AFB  MOSUNNY   63  33  32 W7        29.91S
HELENA         CLOUDY    65  33  30 W7        29.93S
CHOTEAU          N/A     64  32  29 VRB6      29.93S
CONRAD           N/A     66  41  40 W10       29.94S
$$

MTZ011-013-016-021-045-047-050-051-270000-
NORTH CENTRAL MONTANA

CITY           SKY/WX    TMP DP  RH WIND       PRES   REMARKS
HAVRE          CLOUDY    63  40  42 SE16      29.87R
LEWISTOWN      MOSUNNY   60  32  34 N8        29.92F
N BAR RANCH      N/A     57  28  33 NW10G17   29.95R
CHINOOK          N/A     63  36  36 N5        29.86F
FORT BENTON      N/A     66  32  28 CALM      29.89S
$$

MTZ017>020-022>027-061-062-270000-
NORTHEAST MONTANA

CITY           SKY/WX    TMP DP  RH WIND       PRES   REMARKS
GLASGOW        PTSUNNY   63  38  39 W18G28    29.83R
JORDAN           N/A     66  33  29 NW17G29   29.86R
SIDNEY         MOSUNNY   70  33  25 NW18      29.79S
WOLF POINT     MOSUNNY   68  32  26 NW12      29.80S
MALTA          PTSUNNY   61  45  55 N16G24    29.87R
PLENTYWOOD       N/A     64  32  29 W20G25    29.77R
POPLAR           N/A     66  32  28 NW10G18   29.80S
$$

MTZ028>42-056>058-270000-
SOUTHCENTRAL AND SOUTHEAST MONTANA

CITY           SKY/WX    TMP DP  RH WIND       PRES   REMARKS
BAKER          CLOUDY    64  32  30 NW12      29.87S
BILLINGS       CLOUDY    61  31  32 E5        29.92S
LIVINGSTON     PTSUNNY   60  36  40 E12       29.92S
MILES CITY     PTSUNNY   68  29  23 NW7       29.86S
BIG TIMBER     MOSUNNY   59  32  36 VRB3      29.95S
FORSYTH          N/A     64  30  27 W6        29.87S
LAUREL           N/A     62  32  32 CALM      29.93S
ROUNDUP          N/A     63  29  27 NW7       29.84R
$$

REGIONAL REPORTS...DAKOTAS

CITY           SKY/WX    TMP DP  RH WIND       PRES   REMARKS
WILLISTON      PTSUNNY   67  33  28 NW13G23   29.77S
MINOT          MOSUNNY   68  36  30 NW17      29.73R
DICKINSON      PTSUNNY   64  30  27 NW18G28   29.80S
BEACH          CLOUDY    63  34  34 N13       29.87S
CROSBY           N/A     66  30  26 NW20G30   29.73S
TIOGA          PTSUNNY   66  30  26 NW21G36   29.76S
WATFORD CITY     N/A     68  32  26 NW17      29.77S
BISMARCK       CLOUDY    67  39  35 NW13G23   29.80R
GRAND FORKS    MOSUNNY   71  46  40 W16G24    29.70R
FARGO          SUNNY     69  43  38 W22       29.74R
BUFFALO SD       N/A     64  36  35 NW14      29.81S
RAPID CITY     CLOUDY    61  39  44 S7        29.91R
$$

REGIONAL REPORTS...WYOMING/IDAHO/WASHINGTON

CITY           SKY/WX    TMP DP  RH WIND       PRES   REMARKS
GILLETTE       CLOUDY    56  37  49 S7        29.94R
SHERIDAN       CLOUDY    52  43  71 W8        29.96R
BUFFALO WY     LGT RAIN  49  40  71 W6        29.98R
CODY           LGT RAIN  46  40  79 NW6       30.00S
YELLOWSTONE LA   N/A     38  36  92 VRB3      30.03R
IDAHO FALLS    LGT RAIN  44  41  89 NW6       30.00R
SALMON         MOSUNNY   64  34  32 N14G20    29.88S
BOISE          MOSUNNY   71  39  31 NW16      29.90F
SPOKANE        MOSUNNY   73  32  22 W8        29.94S
$$

REGIONAL REPORTS...ALBERTA

CITY           SKY/WX    TMP DP  RH WIND       PRES   REMARKS
EDMONTON       MOSUNNY   70  41  35 NW8       29.73S
CALGARY        PTSUNNY   66  32  28 N15       29.86S
LETHBRIDGE     PTSUNNY   66  32  28 NW10      29.86S
MEDICINE HAT   PTSUNNY   64  41  42 W15       29.83S
WATERTON GATE    N/A     63  30  29 NE2         N/A
CARDSTON         N/A     66  34  30 W6          N/A
ONEFOUR          N/A     63  32  31 W15G24      N/A
$$

REGIONAL REPORTS...SASKATCHEWAN

CITY           SKY/WX    TMP DP  RH WIND       PRES   REMARKS
SWIFT CURRENT  MOSUNNY   61  41  48 N21G26    29.77S
REGINA         MOSUNNY   66  34  30 NW21G33   29.68S
SASKATOON      MOSUNNY   66  36  32 NW21G30   29.67R
CYPRESS HILLS    N/A     54  37  54 W12G18      N/A
VAL MARIE        N/A     63  30  29 NW15        N/A
ROCKGLEN         N/A     48  43  81 NW23G37     N/A
ASSINIBOIA       N/A     72  37  28 NW14        N/A
$$




USA.gov is the U.S. government's official web portal to all federal, state and local government web resources and services.